RADFXSAT (FOX-1B) (43017 NORAD) Tracking and Keplerian Element Data

This shows tracking and keplerian element data for the satellite.

Feedback or suggestion? Click here.




ElementValue
Catalog43017
NameRADFXSAT (FOX-1B)
Epoch Orbit15761
Epoch Day294.28019384
Epoch Year2020
RAAN201.656
Inclination97.715
Eccentricity0.02568
Argument of Perigee3.9227
Mean Anonmoly356.3917
Mean Motion14.79074371
Decay Rate1.223E-05
L11 43017U 17073E 20294.28019384 .00001223 00000-0 99814-4 0 9998
L22 43017 97.7150 201.6560 0256800 3.9227 356.3917 14.79074371157617

Live tracking and technical data element details for RADFXSAT (FOX-1B) (NORAD 43017). RADFXSAT (FOX-1B) can be tracked NOW for your location showing map with azimuth and elevation plus other details from your city location.

Track the satellite on the map from your city or location and see movement details for azimuth, elevation, latitude, longitude, range, height, and movement on the map or in text.







IsCatalogInMostPopularTable: catalog: 43017, numindb: 811
Update: records affected: 1



GetName: 43017 RADFXSAT (FOX-1B)

Hit Count: updated at: Thu, 22 Oct 2020 03:05:43 GMT